Flag for USA Past Weather in Jefferson City, Missouri, USA — Yesterday and Last 2 Weeks

Now
82 °F

Broken clouds.


Feels Like: 83 °F
Forecast: 63 / 87 °F
Wind: 8 mph from East

Location: Jefferson City Memorial Airport

Current Time: May 27, 2017 at 12:48:16 pm

Latest Report: May 27, 2017 at 11:53 am


Visibility: 10 mi

Pressure: 29.80 "Hg

Humidity: 55%

Dew Point: 64 °F

Location of Jefferson CityLocation

Past Weather in Jefferson City — Graph

°F

Jefferson City Temperature Yesterday

Maximum temperature yesterday: 82 °F (at 1:53 pm)
Minimum temperature yesterday: 64 °F (at 2:53 am)
Average temperature yesterday: 73 °F

High & Low Weather Summary for the Past Weeks

 TemperatureHumidityPressure
High89 °F (May 18, 3:53 pm)94% (May 27, 5:43 am)30.11 "Hg (May 27, 5:43 am)
Low49 °F (May 22, 5:53 am)32% (May 13, 2:53 pm)29.51 "Hg (May 17, 4:53 pm)
Average69 °F65%29.81 "Hg
* Reported May 12 11:53 am — May 27 11:27 am, Jefferson City. Weather by CustomWeather, © 2017

Note: Actual official high and low records may vary slightly from our data, if they occured in-between our weather recording intervals... More about our weather records

Advertising

Jefferson City Weather History for the Previous 24 Hours

Scroll right to see more
 ConditionsComfort  
Time TempWeatherWind HumidityBarometerVisibility
11:27 am
Sat, May 27
82 °FPartly sunny.8 mph55%29.85 "Hg10 mi
11:12 am83 °FThundershowers. Scattered clouds.N/A53%29.85 "Hg10 mi
10:53 am82 °FPartly sunny.6 mph55%29.82 "Hg10 mi
9:53 am80 °FSunny.7 mph58%29.83 "Hg10 mi
8:53 am77 °FSunny.8 mph66%29.80 "Hg10 mi
7:53 am73 °FSunny.6 mph81%29.81 "Hg10 mi
6:53 am68 °FFog.5 mph90%29.82 "Hg5 mi
5:55 am66 °FFog.No wind90%29.85 "Hg3 mi
5:43 am64 °FFog.3 mph94%29.85 "Hg1 mi
5:33 am66 °FFog.No wind90%29.84 "Hg0 mi
5:16 am66 °FFog.No wind93%29.84 "Hg0 mi
5:01 am66 °FFog.No wind90%29.84 "Hg1 mi
4:48 am66 °FFog.No wind90%29.80 "Hg1 mi
4:15 am67 °FFog.No wind90%29.83 "Hg5 mi
3:36 am66 °FFog.No wind90%29.84 "Hg2 mi
2:53 am67 °FClear.No wind87%29.80 "Hg8 mi
1:53 am67 °FFog.3 mph90%29.80 "Hg6 mi
12:53 am69 °FClear.No wind87%29.80 "Hg8 mi
11:53 pm
Fri, May 26
70 °FClear.No wind87%29.80 "Hg10 mi
10:53 pm72 °FClear.No wind84%29.79 "Hg10 mi
9:53 pm74 °FClear.No wind79%29.78 "Hg10 mi
8:53 pm77 °FClear.No wind71%29.76 "Hg10 mi
7:53 pm81 °FScattered clouds.3 mph62%29.74 "Hg10 mi
6:53 pm82 °FPartly sunny.5 mph58%29.72 "Hg10 mi
5:53 pm82 °FOvercast.6 mph58%29.72 "Hg10 mi
4:53 pm82 °FMostly cloudy.6 mph58%29.71 "Hg10 mi
3:53 pm82 °FBroken clouds.No wind58%29.70 "Hg10 mi
2:53 pm80 °FMostly cloudy.7 mph62%29.69 "Hg10 mi
1:53 pm82 °FMore clouds than sun.7 mph56%29.69 "Hg10 mi
12:53 pm81 °FScattered clouds.6 mph58%29.68 "Hg10 mi
Weather by CustomWeather, © 2017

See weather overviewHow to use our weather pages